"Time","Temp","Dewpoint","Humidity","Pressure","Direction","Speed","Gust","Precip","PrecipRate"
"00:04:57","48.2","22.4","35.9","30.21","321","5","10","0.00","0.00"
"00:09:58","48","22.3","36","30.21","316","4.5","9.2","0.00","0.00"
"00:14:56","47.9","22.2","36","30.21","311","3.9","7","0.00","0.00"
"00:19:58","47.8","22.1","36","30.21","313","4.1","13","0.00","0.00"
"00:24:56","47.6","22","36.1","30.21","321","3.4","7","0.00","0.00"
"00:29:58","47.4","21.8","36.2","30.21","315","4.1","10.4","0.00","0.00"
"00:34:57","47.2","22","36.5","30.21","318","3.2","7","0.00","0.00"
"00:39:56","46.9","22","37","30.21","305","3.8","7","0.00","0.00"
"00:44:57","46.8","22.2","37.6","30.21","313","3.1","7","0.00","0.00"
"00:49:58","46.4","22.1","38","30.21","317","3.6","6","0.00","0.00"
"00:54:59","46.3","22","38","30.21","317","4","8.1","0.00","0.00"
"00:59:56","46.2","22","38","30.21","301","3.5","6","0.00","0.00"
"01:04:56","46.1","21.9","38","30.21","311","3.9","6","0.00","0.00"
"01:09:58","46.1","21.9","38","30.21","310","4.1","7","0.00","0.00"
"01:14:57","46","21.8","38","30.21","315","4","6","0.00","0.00"
"01:19:56","45.8","21.8","38.2","30.21","323","5","9.2","0.00","0.00"
"01:24:58","45.9","21.7","38","30.21","311","4.4","7","0.00","0.00"
"01:29:56","45.9","21.7","38","30.21","314","3.9","7","0.00","0.00"
"01:34:58","45.9","21.7","38","30.20","307","4.5","9","0.00","0.00"
"01:39:58","45.9","21.7","38","30.20","285","3.6","9.2","0.00","0.00"
"01:44:55","45.7","21.6","38.2","30.20","283","3.5","14","0.00","0.00"
"01:49:56","45.6","21.4","38","30.20","301","3.4","6","0.00","0.00"
"01:54:58","45.5","21.3","38","30.20","271","3.5","7","0.00","0.00"
"01:59:59","45.7","20.8","36.8","30.20","310","3.9","11","0.00","0.00"
"03:04:59","45.9","21","36.9","30.19","300","5.1","14","0.00","0.00"
"03:09:57","45.9","20.6","36.3","30.19","310","3.9","10.4","0.00","0.00"
"03:14:59","45.9","20.3","35.9","30.19","311","4.7","9.2","0.00","0.00"
"03:19:57","45.9","20","35.4","30.19","299","3.9","6.9","0.00","0.00"
"03:24:58","45.8","20","35.5","30.19","280","3.2","7","0.00","0.00"
"03:29:59","45.7","19.7","35.2","30.19","278","3.6","7","0.00","0.00"
"03:34:59","45.6","19.5","35","30.18","267","2.4","6.9","0.00","0.00"
"03:39:56","45.3","19.9","36","30.18","290","2.2","5","0.00","0.00"
"03:44:58","45.1","19.3","35.4","30.18","310","2.6","8.1","0.00","0.00"
"03:49:56","45","19.5","35.8","30.18","312","1.1","4.6","0.00","0.00"
"03:54:59","44.7","19.4","36","30.18","287","0.7","3","0.00","0.00"
"03:59:57","44.5","19.3","36.2","30.18","270","0.5","2.3","0.00","0.00"
"04:04:59","44.1","19.7","37.4","30.18","190","0.6","3.5","0.00","0.00"
"04:09:58","43.6","19.8","38.3","30.18","191","0.1","1.2","0.00","0.00"
"04:14:57","42.9","20.3","40.1","30.18","191","0.5","3","0.00","0.00"
"04:19:58","42","19.9","40.8","30.18","191","1","3.5","0.00","0.00"
"04:24:56","41.4","19.9","41.7","30.18","192","0.7","2.3","0.00","0.00"
"04:29:56","40.9","20.2","43.2","30.18","220","1.3","3.5","0.00","0.00"
"04:34:58","40.6","20.7","44.7","30.17","252","1.5","3.5","0.00","0.00"
"04:39:58","40.2","20.6","45.2","30.17","234","1.9","3.5","0.00","0.00"
"04:44:59","40.3","20.7","45.3","30.17","232","0.9","3.5","0.00","0.00"
"04:49:56","40.3","20.6","45","30.17","232","1","2.3","0.00","0.00"
"04:54:58","40.3","20.4","44.6","30.17","232","0.9","2.3","0.00","0.00"
"04:59:56","40.6","20.1","43.4","30.17","232","1.1","2.3","0.00","0.00"
"05:04:57","40.9","20.1","43","30.17","241","1","3.5","0.00","0.00"
"05:09:55","41","20.1","42.8","30.17","241","1.1","3.5","0.00","0.00"
"05:14:58","41.1","20.1","42.7","30.17","264","1","4","0.00","0.00"
"05:19:59","41.4","19.6","41.3","30.17","279","1.4","4","0.00","0.00"
"05:24:56","41.9","19.5","40.2","30.17","231","1.4","5","0.00","0.00"
"05:29:59","42.7","19.1","38.5","30.17","275","2.3","5","0.00","0.00"
"05:34:57","43.2","19.3","38","30.17","291","2","4","0.00","0.00"
"05:39:59","43.4","19.5","38","30.17","302","2.5","4","0.00","0.00"
"05:44:56","43.4","19.4","37.9","30.17","325","2.4","4","0.00","0.00"
"05:49:57","43.2","19.4","38.1","30.16","313","2.7","4","0.00","0.00"
"05:54:59","43.1","19.7","38.8","30.16","309","2.4","3.5","0.00","0.00"
"05:59:56","42.9","19.6","39","30.16","309","2.1","4","0.00","0.00"
"06:04:56","42.7","19.7","39.5","30.16","311","2.4","4","0.00","0.00"
"06:09:56","42.4","19.8","40","30.16","313","2.1","3.5","0.00","0.00"
"06:14:59","42.1","19.8","40.5","30.16","313","2.2","3.5","0.00","0.00"
"06:19:56","42","19.7","40.4","30.15","313","1.4","3.5","0.00","0.00"
"06:24:57","41.9","19.7","40.7","30.15","312","1","3.5","0.00","0.00"
"06:29:58","41.8","20.1","41.5","30.15","313","1.3","6","0.00","0.00"
"06:34:56","41.8","20.2","41.7","30.15","288","1.4","5.8","0.00","0.00"
"06:39:58","41.7","20.2","41.9","30.15","288","1","3.5","0.00","0.00"
"06:44:56","41.8","20.8","42.8","30.16","225","1.2","5","0.00","0.00"
"06:49:57","41.9","20.1","41.4","30.16","232","1.2","3.5","0.00","0.00"
"06:54:59","42.2","20.3","41.3","30.16","271","0.8","3.5","0.00","0.00"
"06:59:56","42.3","20.4","41.3","30.16","284","1.1","3.5","0.00","0.00"
"07:04:57","42.6","20.6","41.1","30.16","288","1.1","3.5","0.00","0.00"
"07:09:55","42.8","20.5","40.6","30.16","286","1","3.5","0.00","0.00"
"07:14:56","43.1","20","39.3","30.16","287","0.1","1.2","0.00","0.00"
"07:19:58","43.2","20.1","39.4","30.16","267","0.5","2.3","0.00","0.00"
"07:24:57","43","20.9","40.9","30.16","222","0.7","3.5","0.00","0.00"
"07:29:56","42.7","21.2","42","30.16","212","0.9","3.5","0.00","0.00"
"07:34:59","42.4","20.9","42","30.16","212","0.4","2.3","0.00","0.00"
"07:39:59","42.3","21.2","42.7","30.16","212","0.7","2.3","0.00","0.00"
"07:44:58","42.1","21.4","43.3","30.16","212","0.5","2.3","0.00","0.00"
"07:49:57","42.1","21.2","43.1","30.16","212","0.5","2.3","0.00","0.00"
"07:54:59","42.1","21.7","44","30.16","212","0.6","2.3","0.00","0.00"
"07:59:58","42.3","21.8","43.9","30.16","213","0.1","2.3","0.00","0.00"
"08:04:58","43","21.9","42.8","30.16","213","0.4","2.3","0.00","0.00"
"08:09:57","43.9","22.8","43","30.16","213","0.4","2","0.00","0.00"
"08:14:57","44.5","23.9","43.9","30.16","213","0.3","2.3","0.00","0.00"
"08:19:58","45.1","23.6","42.5","30.16","212","1","3","0.00","0.00"
"08:24:57","45.8","23.9","41.8","30.16","246","2.4","6","0.00","0.00"
"08:29:56","46.4","24.2","41.5","30.16","236","1.8","3.5","0.00","0.00"
"08:34:58","47","25.2","42.1","30.16","232","1.1","5","0.00","0.00"
"08:39:56","47.8","24.7","40.2","30.16","229","1.9","5","0.00","0.00"
"08:44:58","48.5","25.3","40.1","30.17","215","2","5","0.00","0.00"
"08:49:58","49.1","25","38.6","30.17","191","1.7","4","0.00","0.00"
"08:54:59","49.7","25.3","38.3","30.17","225","2","4","0.00","0.00"
"08:59:58","50.2","25.4","37.8","30.17","214","1.4","4","0.00","0.00"
"09:04:58","50.8","25","36.4","30.17","261","2.9","10.4","0.00","0.00"
"09:09:55","51.3","25.4","36.3","30.17","280","2.7","6","0.00","0.00"
"09:14:57","51.6","25.8","36.4","30.17","272","2.9","5","0.00","0.00"
"09:19:56","51.9","24.8","34.7","30.16","291","4.5","12","0.00","0.00"
"09:24:57","52.1","25.4","35.2","30.16","276","5.2","11.5","0.00","0.00"
"09:29:56","52.3","25.1","34.5","30.16","292","4.3","14","0.00","0.00"
"09:34:56","52.6","25.1","34.2","30.16","290","4.9","13.8","0.00","0.00"
"09:39:57","52.9","25.1","33.7","30.16","299","5","14","0.00","0.00"
"09:44:57","53.3","25.7","34.1","30.16","305","4.3","14","0.00","0.00"
"09:49:57","53.6","25.4","33.3","30.16","280","6.7","13","0.00","0.00"
"09:54:57","53.7","25","32.7","30.16","310","5.8","18.4","0.00","0.00"
"09:59:56","54","25.1","32.4","30.16","305","6.8","15","0.00","0.00"
"10:04:57","54.1","25.2","32.5","30.16","308","6","13.8","0.00","0.00"
"10:09:58","54.4","25.9","33.1","30.16","319","7.3","13","0.00","0.00"
"10:14:57","54.9","27","34","30.16","297","5.2","11","0.00","0.00"
"10:19:58","55.3","26.2","32.4","30.15","285","5.2","14","0.00","0.00"
"10:24:58","55.3","25.6","31.6","30.15","278","5.7","11.5","0.00","0.00"
"10:29:56","55.3","26.4","32.6","30.15","328","5.2","11.5","0.00","0.00"
"10:34:57","55.7","27","33","30.15","275","4.3","13","0.00","0.00"
"10:39:56","56","27.7","33.6","30.15","274","5.3","12.7","0.00","0.00"
"10:44:59","56.5","27.5","32.8","30.15","271","4.6","12","0.00","0.00"
"10:49:56","56.4","27.4","32.7","30.14","257","5.1","11.5","0.00","0.00"
"10:54:56","56.6","26.8","31.6","30.14","286","3.7","9.2","0.00","0.00"
"10:59:56","56.8","27.4","32.3","30.14","308","4.9","11","0.00","0.00"
"11:04:59","56.7","27.9","33","30.14","277","4","11.5","0.00","0.00"
"11:09:57","57.1","28.1","32.8","30.14","265","5.2","12","0.00","0.00"
"11:14:57","57.2","27.4","31.8","30.14","257","5.9","20","0.00","0.00"
"11:19:57","57","27.3","31.8","30.14","296","5.1","17","0.00","0.00"
"11:24:56","56.8","27.5","32.3","30.14","282","6.2","17.3","0.00","0.00"
"11:29:56","57","28.2","33","30.14","267","5.5","12.7","0.00","0.00"
"11:34:56","57.8","28.4","32.5","30.12","268","6.8","21","0.00","0.00"
"11:39:57","58.3","28.1","31.4","30.12","315","6.8","13","0.00","0.00"
"11:44:57","58.3","28.3","31.7","30.12","310","8.8","18.4","0.00","0.00"
"11:49:57","58.1","28","31.5","30.12","304","6.6","17.3","0.00","0.00"
"11:54:57","58.3","28.9","32.5","30.12","328","8.7","18.4","0.00","0.00"
"11:59:57","58.6","29.2","32.5","30.12","319","5.6","15","0.00","0.00"
"12:04:57","58.8","28.8","31.7","30.12","319","7.1","15","0.00","0.00"
"12:09:58","59.1","30.3","33.3","30.12","313","5.4","13","0.00","0.00"
"12:14:57","59.9","30.7","33","30.12","284","4.3","11.5","0.00","0.00"
"12:19:57","60.7","31.9","33.7","30.11","270","5.7","14","0.00","0.00"
"12:24:58","61.1","31.2","32.3","30.11","279","6.9","15","0.00","0.00"
"12:29:59","60.9","30.6","31.7","30.11","311","7.2","14","0.00","0.00"
"12:34:56","60.4","30.2","31.8","30.11","277","6.4","16.1","0.00","0.00"
"12:39:59","60.7","31","32.5","30.11","295","6.6","15","0.00","0.00"
"12:44:57","60.9","30.9","32.2","30.11","287","6.1","18","0.00","0.00"
"12:49:57","60.9","30.6","31.7","30.10","313","8.9","19.6","0.00","0.00"
"12:54:58","61.2","30.9","31.9","30.10","310","5.6","13","0.00","0.00"
"12:59:59","61.5","31.8","32.5","30.10","314","6.9","17.3","0.00","0.00"
"13:04:59","61.9","31","31.1","30.09","314","9.9","17","0.00","0.00"
"13:09:56","61.5","30.3","30.7","30.09","317","8.6","19.6","0.00","0.00"
"13:14:59","61.8","32","32.5","30.09","264","6.6","20","0.00","0.00"
"13:19:56","61.7","30.8","31.1","30.09","281","8.8","20","0.00","0.00"
"13:24:58","61.5","31.6","32.3","30.09","299","7.4","16.1","0.00","0.00"
"13:29:59","62.5","32.7","32.7","30.09","287","6.4","16","0.00","0.00"
"13:34:56","62.5","31.2","30.8","30.08","305","9.4","19","0.00","0.00"
"13:39:55","62.1","31.3","31.3","30.08","309","9.3","24","0.00","0.00"
"13:44:57","62.8","32","31.5","30.08","328","7.8","24.2","0.00","0.00"
"13:49:57","63.6","32.7","31.4","30.07","266","7.5","17.3","0.00","0.00"
"13:54:59","63.4","31.4","29.9","30.07","320","9.2","17.3","0.00","0.00"
"13:59:56","63.1","30.4","29.2","30.07","322","11.4","27","0.00","0.00"
"14:04:57","62.8","31.2","30.4","30.06","287","8.8","19.6","0.00","0.00"
"14:09:58","63.2","32.1","31.1","30.06","287","7.8","18","0.00","0.00"
"14:14:56","63.6","31.6","30","30.06","272","6.5","18.4","0.00","0.00"
"14:19:58","63.7","31.8","30.3","30.06","287","7.2","15","0.00","0.00"
"14:24:59","63.8","31.5","29.8","30.06","326","9.5","21","0.00","0.00"
"14:29:57","63.2","31","29.8","30.06","300","7.6","16","0.00","0.00"
"14:34:59","63","30.6","29.5","30.05","303","9.3","16.1","0.00","0.00"
"14:39:57","63.1","30.6","29.3","30.05","318","9.7","21","0.00","0.00"
"14:44:59","62.9","30.7","29.7","30.05","297","6.9","15","0.00","0.00"
"14:49:59","63.5","30.5","28.8","30.04","313","8.3","19.6","0.00","0.00"
"14:54:56","63.4","29.9","28.2","30.04","316","8.1","18","0.00","0.00"
"14:59:58","63.9","31.2","29.3","30.04","268","7.6","18.4","0.00","0.00"
"15:04:57","64.1","30.2","28","30.03","319","9.4","19.6","0.00","0.00"
"15:09:59","64","29.7","27.5","30.03","331","11.5","21","0.00","0.00"
"15:14:58","63.6","29.8","27.9","30.03","314","9.5","20.7","0.00","0.00"
"15:19:59","63.7","29.5","27.4","30.03","318","11.2","27","0.00","0.00"
"15:24:57","63.6","29.6","27.7","30.03","342","12.6","24.2","0.00","0.00"
"15:29:59","63.6","29.8","27.9","30.03","318","10.8","21","0.00","0.00"
"15:34:57","63.8","29.7","27.7","30.03","341","10","23","0.00","0.00"
"15:39:56","63.9","29.5","27.4","30.03","317","9","23","0.00","0.00"
"15:44:57","64.1","30.8","28.6","30.03","325","9.1","17.3","0.00","0.00"
"15:49:59","64.2","29.6","27.1","30.03","334","11","24","0.00","0.00"
"15:54:57","64","29.9","27.7","30.03","314","9.3","24","0.00","0.00"
"15:59:59","63.8","29","26.8","30.03","322","12.5","24.2","0.00","0.00"
"16:04:59","63.4","29.3","27.5","30.03","310","11.3","25","0.00","0.00"
"16:09:57","63.7","30.2","28.3","30.03","312","8.6","19","0.00","0.00"
"16:14:59","63.6","28.6","26.5","30.03","328","11.4","28","0.00","0.00"
"16:19:57","63.6","28.9","26.9","30.03","320","9","17","0.00","0.00"
"16:24:56","63.5","27.7","25.7","30.03","328","9","21","0.00","0.00"
"16:29:56","63.1","27.2","25.5","30.03","333","11.1","19.6","0.00","0.00"
"16:34:57","62.9","27","25.5","30.03","324","11.1","22","0.00","0.00"
"16:39:59","62.8","26.7","25.3","30.03","335","10.3","19.6","0.00","0.00"
"16:44:57","62.9","26.6","25.1","30.03","292","7.4","17.3","0.00","0.00"
"16:49:58","62.6","26.1","24.9","30.03","325","9.6","20","0.00","0.00"
"16:54:56","62.2","24.7","23.8","30.03","323","8.9","16.1","0.00","0.00"
"16:59:57","62.1","25.8","24.9","30.04","341","8.4","24","0.00","0.00"
"17:04:58","61.5","23.8","23.5","30.04","325","10.5","24.2","0.00","0.00"
"17:09:59","60.9","23.3","23.6","30.04","322","9.9","19.6","0.00","0.00"
"17:14:58","60.6","23.8","24.2","30.04","312","7.5","15","0.00","0.00"
"17:19:56","60.6","23.1","23.5","30.04","332","8.5","15","0.00","0.00"
"17:24:58","60.6","23.3","23.7","30.04","328","7.7","16.1","0.00","0.00"
"17:29:58","60.7","22.9","23.3","30.05","324","9.7","19.6","0.00","0.00"
"17:34:58","60.5","21.7","22.3","30.05","314","10.5","24","0.00","0.00"
"17:39:57","60.2","21.1","22","30.05","324","12","26","0.00","0.00"
"17:44:58","59.8","20.7","21.9","30.05","328","12.6","20","0.00","0.00"
"17:49:55","59.6","21.5","22.9","30.04","310","9.4","19","0.00","0.00"
"17:54:57","59.5","21.1","22.5","30.04","332","10.2","21","0.00","0.00"
"17:59:58","59.3","20.6","22.1","30.04","328","10.6","23","0.00","0.00"
"18:04:58","59.1","20.3","22","30.04","319","9.8","21","0.00","0.00"
"18:09:56","59.1","20.8","22.6","30.04","320","8.4","13.8","0.00","0.00"
"18:14:59","58.9","21.4","23.3","30.05","306","5.6","13","0.00","0.00"
"18:19:57","58.7","21.4","23.4","30.05","324","7.6","20","0.00","0.00"
"18:24:59","58.5","20.8","23","30.05","326","10.2","24.2","0.00","0.00"
"18:29:58","58.2","20.8","23.3","30.05","316","7.7","17.3","0.00","0.00"
"18:34:59","57.8","20.1","22.9","30.05","332","8.1","17.3","0.00","0.00"
"18:39:58","57.5","20.2","23.3","30.05","342","6.2","11.5","0.00","0.00"
"18:44:59","57.3","20.6","23.8","30.07","323","6.7","13","0.00","0.00"
"18:49:57","57.1","20.8","24.2","30.07","331","5.5","12.7","0.00","0.00"
"18:54:56","56.8","20.7","24.3","30.07","326","5.1","11.5","0.00","0.00"
"18:59:59","56.5","20.4","24.3","30.09","323","4","17","0.00","0.00"
"19:04:56","56.1","19.8","24","30.09","320","8.4","16.1","0.00","0.00"
"19:09:57","55.9","19.1","23.4","30.09","335","7.8","19.6","0.00","0.00"
"19:14:58","55.7","17.8","22.4","30.10","329","7.6","24.2","0.00","0.00"
"19:19:57","55.4","17.1","22","30.10","334","9","24.2","0.00","0.00"
"19:24:56","55.2","16.2","21.3","30.10","337","10","17.3","0.00","0.00"
"19:29:59","55","15.3","20.7","30.11","318","8.2","19.6","0.00","0.00"
"19:34:58","54.6","14.9","20.5","30.11","322","7.6","14","0.00","0.00"
"19:39:58","54.4","13.8","19.7","30.11","335","8","19","0.00","0.00"
"19:44:57","54.4","13.3","19.4","30.13","331","7.7","19","0.00","0.00"
"19:49:56","54.2","12.8","19.1","30.13","322","7.2","17.3","0.00","0.00"
"19:54:59","54","11.5","18.1","30.13","321","8.2","16.1","0.00","0.00"
"19:59:57","53.8","11.2","18","30.14","318","5.7","13","0.00","0.00"
"20:04:58","53.5","11","18","30.14","326","5.8","16.1","0.00","0.00"
"20:09:56","53.2","11.9","19","30.14","334","3.4","9.2","0.00","0.00"
"20:14:56","52.8","11.6","19","30.16","340","5.3","13","0.00","0.00"
"20:19:57","52.5","10.9","18.7","30.16","341","6.8","15","0.00","0.00"
"20:24:58","52.4","10.4","18.3","30.16","336","6.7","17","0.00","0.00"
"20:29:59","52.2","10.2","18.3","30.17","338","5.6","16.1","0.00","0.00"
"20:34:58","51.9","10.5","18.7","30.17","346","5.1","11.5","0.00","0.00"
"20:39:58","51.6","9.4","18","30.17","344","7.3","18","0.00","0.00"
"20:44:56","51.5","9.7","18.3","30.18","347","8.1","15","0.00","0.00"
"20:49:58","51.3","10.2","18.8","30.18","352","7.4","19.6","0.00","0.00"
"20:54:56","51.3","10.1","18.8","30.18","351","7.9","15","0.00","0.00"
"20:59:58","51.1","10.6","19.3","30.19","331","7.4","18.4","0.00","0.00"
"21:04:59","50.9","11.3","20","30.19","333","5.3","14","0.00","0.00"
"21:09:57","50.6","11.9","20.8","30.19","341","4.5","11.5","0.00","0.00"
"21:14:57","50.2","12.5","21.7","30.20","346","5","12","0.00","0.00"
"21:19:56","49.8","13","22.6","30.20","325","4.7","14","0.00","0.00"
"21:24:57","49.5","13.4","23.2","30.20","5","4.3","12","0.00","0.00"
"21:29:59","49.2","13.6","23.7","30.21","347","3.5","10.4","0.00","0.00"
"21:34:58","48.8","13.5","24","30.21","338","3.7","9.2","0.00","0.00"
"21:39:58","48.5","13.8","24.5","30.21","312","2.3","5","0.00","0.00"
"21:44:56","48.1","14.1","25.1","30.22","331","1.5","4.6","0.00","0.00"
"21:49:59","47.8","14.5","26","30.22","324","2.8","7","0.00","0.00"
"21:54:57","47.5","14.5","26.3","30.22","340","4.3","10.4","0.00","0.00"
"21:59:56","47.5","14.8","26.7","30.23","341","4.6","13","0.00","0.00"
"22:04:56","47.5","15.1","27","30.23","331","4.9","16.1","0.00","0.00"
"22:09:59","47.4","15.3","27.3","30.23","321","2.2","6.9","0.00","0.00"
"22:14:59","47.1","15.5","27.9","30.23","319","1.9","7","0.00","0.00"
"22:19:58","46.7","15.4","28.2","30.23","343","2.9","6","0.00","0.00"
"22:24:56","46.4","15.7","28.8","30.23","328","3.7","12","0.00","0.00"
"22:29:58","46.4","15.9","29.2","30.25","339","4.6","10","0.00","0.00"
"22:34:56","46.4","16.1","29.4","30.25","339","4.8","11.5","0.00","0.00"
"22:39:56","46.3","16.6","30.1","30.25","340","6.2","15","0.00","0.00"
"22:44:58","46.2","17","30.7","30.26","330","4.9","11.5","0.00","0.00"
"22:49:57","46","17.3","31.4","30.26","343","4","12","0.00","0.00"
"22:54:56","45.7","17.4","31.9","30.26","339","3","9.2","0.00","0.00"
"22:59:59","45.4","17.6","32.5","30.26","342","3.7","15","0.00","0.00"
"23:04:59","45.2","17.5","32.7","30.26","329","4","16","0.00","0.00"
"23:09:57","45","17.3","32.5","30.26","340","3.1","10.4","0.00","0.00"
"23:14:57","44.8","16.7","32","30.28","348","5.2","12","0.00","0.00"
"23:19:56","44.6","16.4","31.9","30.28","354","4.4","12","0.00","0.00"
"23:24:58","44.4","16.3","32","30.28","356","3.7","11.5","0.00","0.00"
"23:29:57","44.1","16.2","32.2","30.28","8","2.9","11.5","0.00","0.00"
"23:34:56","43.8","16.2","32.7","30.28","358","3.2","10","0.00","0.00"
"23:39:56","43.6","16.3","33","30.28","339","4","10","0.00","0.00"
"23:44:59","43.3","16.6","33.7","30.28","349","3.3","9","0.00","0.00"
"23:49:58","43","16.5","34","30.28","347","4.8","11.5","0.00","0.00"
"23:54:56","42.9","16.4","34","30.28","345","5.2","11.5","0.00","0.00"
"23:59:58","42.8","16.3","34","30.28","338","5.2","15","0.00","0.00"
